RH
92 96 99 100 100 96 93 95 98 98 97 95 95 94 91 91 88 76 77 77 76 75 76 77 79 73 69 67 69 72 73 76 78 80 79 75 71 69 68 68 67 65 63
98 98 99 100 100 100 95 95 93 95 98 92 92 91 86 82 78 78 79 79 79 79 80 80 79 73 71 70 70 70 73 74 75 71 70 77 56 59 58 58 56 55 56
95 97 98 99 100 99 98 96 92 89 92 89 92 89 85 82 82 83 80 76 72 69 68 70 70 70 70 69 70 70 71 70 73 70 61 76 74 76 58 59 57 55 53
88 90 92 97 96 98 100 93 90 88 92 90 93 88 86 87 81 78 77 75 73 70 69 67 66 65 67 70 71 71 70 67 67 73 68 63 67 79 79 54 51 49 50
82 85 91 91 92 93 98 100 94 95 95 89 91 85 80 79 78 77 76 75 72 71 72 72 70 68 66 62 66 68 69 68 66 66 64 66 71 74 78 89 65 53 50
69 79 94 93 93 95 99 99 100 100 93 92 90 81 80 82 81 79 76 76 74 73 74 74 72 70 68 62 59 60 63 64 64 63 63 62 60 70 81 91 78 73 58
70 77 89 90 83 97 99 100 100 100 96 94 91 91 90 86 83 78 76 75 74 75 73 73 71 71 68 67 62 61 61 61 62 63 63 64 63 60 61 68 72 77 68
79 81 79 81 81 87 98 100 100 100 100 100 97 96 96 97 85 85 74 72 71 71 72 73 72 72 70 70 70 68 68 70 70 67 66 66 64 61 59 64 72 87 85
80 86 89 85 83 83 94 100 100 100 100 100 100 100 98 92 88 84 76 71 69 69 70 72 75 76 77 75 74 74 76 78 77 74 72 70 65 64 64 70 74 79 90
85 85 91 90 88 88 95 100 96 95 98 100 100 100 93 88 84 83 78 73 68 69 70 72 75 76 77 78 78 78 79 82 81 79 79 76 72 73 75 76 78 83 86
86 86 89 89 92 96 99 100 91 96 99 100 100 96 91 89 89 85 75 71 71 71 71 72 74 75 76 77 79 79 78 82 81 83 84 81 79 81 81 82 85 90 94
86 86 88 90 95 97 97 96 91 96 97 94 95 93 89 85 86 86 77 77 76 75 75 74 76 76 78 78 77 80 80 80 81 79 86 81 83 89 91 95 95 98 98
91 92 94 94 93 96 96 96 95 94 91 90 89 88 85 83 83 80 79 84 84 81 83 85 84 82 82 86 86 86 85 86 86 87 95 92 98 99 100 100 100 100 100
99 99 98 97 96 99 97 99 97 90 83 89 89 86 85 84 83 82 86 89 88 90 96 97 97 98 100 100 100 100 100 100 100 100 100 100 100 100 100 100 100 100 100
99 98 98 98 100 100 100 100 99 95 90 92 93 93 91 92 94 98 98 98 99 99 99 100 100 100 100 100 100 99 100 99 99 100 100 100 100 100 100 99 100 99 100
98 98 97 97 98 99 100 99 99 100 100 100 100 99 100 100 100 100 99 100 100 100 100 100 100 100 100 100 100 100 100 100 100 99 100 100 100 100 100 99 96 97 98
88 97 96 93 95 99 100 100 100 100 100 100 100 100 100 100 100 100 100 100 100 99 100 100 100 100 100 100 98 98 96 94 97 98 99 100 100 100 100 98 94 96 92
81 92 95 94 95 100 100 99 100 100 100 100 100 100 100 100 100 100 100 100 100 100 100 100 100 100 100 100 96 90 90 91 93 94 93 92 98 95 92 87 77 70 66
81 90 91 92 95 98 99 99 99 99 99 100 100 99 99 99 98 98 96 94 93 93 92 90 90 92 97 96 89 79 78 76 77 74 74 77 77 84 89 77 76 70 66
85 93 96 92 90 93 94 96 97 96 95 94 93 90 90 92 91 89 86 82 78 79 77 78 86 92 94 93 80 72 68 66 66 66 64 61 76 94 96 90 88 86 90
76 81 84 89 87 87 91 89 90 90 89 88 87 86 81 82 79 73 69 65 60 65 74 81 89 86 84 93 89 69 63 65 67 65 63 71 91 96 96 95 92 94 96
71 72 76 80 80 77 77 77 75 72 71 70 66 62 60 57 57 54 53 55 59 70 75 75 75 76 80 86 92 92 89 80 66 67 78 86 96 91 77 78 97 93 68
64 64 67 74 74 70 70 70 68 62 59 56 54 52 51 50 50 50 54 60 65 68 73 71 69 71 79 82 91 92 87 86 78 85 90 81 68 60 63 75 72 62 63
61 59 59 64 67 65 64 63 60 56 54 54 54 55 53 55 56 58 61 63 69 71 72 70 74 75 77 79 80 77 75 76 78 80 69 57 52 60 64 63 62 65 75
56 56 55 57 61 60 59 59 56 53 54 55 60 61 67 61 64 63 61 63 66 60 64 66 67 72 80 88 89 88 87 87 88 70 51 50 59 67 69 68 73 72 78
56 56 54 53 58 58 58 56 53 51 53 61 67 67 70 67 68 70 81 78 81 83 76 71 72 80 89 92 92 95 92 92 84 53 63 70 71 74 77 80 81 75 79
Wind_Speed
9 25 25 27 30 32 34 33 31 32 34 34 32 27 27 26 23 23 23 23 23 23 22 20 18 18 18 17 17 16 13 12 11 8 9 13 15 16 17 16 16 16 15
11 17 23 26 31 31 31 33 33 33 34 34 32 26 30 26 26 24 23 24 22 22 21 21 21 19 20 19 20 18 15 12 12 5 2 3 4 9 18 20 18 18 17
16 16 19 25 28 30 32 32 33 35 36 33 28 23 26 24 24 26 25 24 23 22 21 21 20 20 21 21 21 19 17 14 15 11 4 1 3 6 3 4 10 16 19
11 13 17 22 30 31 30 33 36 36 36 35 31 31 28 20 25 28 26 24 24 23 22 21 21 22 21 22 21 20 18 16 14 14 15 10 4 1 4 3 7 8 11
15 14 14 23 23 28 31 31 34 32 33 38 34 31 29 28 23 26 27 25 25 25 25 23 21 21 20 20 21 21 20 18 16 17 11 15 16 12 7 4 7 12 15
15 12 14 20 19 24 28 30 32 32 35 35 36 33 26 28 26 27 28 28 27 27 27 25 24 23 21 20 21 20 20 21 20 18 19 18 8 7 11 7 10 12 19
15 14 12 18 23 22 25 28 32 31 36 36 38 36 35 32 31 29 31 31 29 30 29 27 26 26 24 21 21 21 22 22 23 22 22 21 21 20 17 13 13 10 11
15 18 17 18 22 24 25 28 30 30 33 37 38 38 36 32 34 34 34 33 32 32 29 27 26 25 25 23 23 23 23 23 24 24 25 25 24 22 25 24 15 3 5
14 15 15 21 23 24 26 28 28 28 30 34 32 31 33 35 34 31 32 30 30 30 29 27 28 27 25 26 25 25 26 25 25 26 26 28 28 28 29 29 26 13 3
16 13 14 24 26 28 25 28 31 33 32 33 32 32 37 35 32 31 29 29 26 28 29 28 27 27 28 27 26 27 28 27 28 28 29 30 31 32 30 30 28 26 21
14 14 14 24 28 27 28 28 30 27 27 30 33 32 33 35 31 31 27 27 28 28 29 29 27 28 28 29 29 30 31 30 30 32 31 32 34 34 34 33 31 30 25
13 13 14 20 23 26 26 27 27 27 26 26 28 31 34 32 31 32 30 30 31 30 30 29 29 29 30 31 32 32 33 33 34 35 34 35 35 33 32 31 31 31 31
6 7 7 11 19 22 25 28 31 31 33 31 29 29 29 31 33 33 32 32 32 31 30 28 28 29 30 30 31 32 32 33 35 35 32 34 31 30 31 30 29 29 30
9 7 8 10 15 17 23 26 31 33 33 33 32 31 29 29 29 30 30 29 29 28 26 26 27 27 27 27 25 25 26 26 27 27 26 25 25 24 21 21 23 24 24
7 10 11 9 12 17 19 23 29 32 32 33 32 31 31 28 27 26 25 25 25 25 25 25 24 21 20 22 23 25 24 21 18 18 18 17 16 9 11 12 12 13 15
11 11 11 12 13 20 23 26 28 30 30 31 31 29 27 25 23 22 21 19 18 18 18 17 15 13 14 13 13 15 13 12 12 13 13 11 9 9 8 8 7 8 11
8 12 13 12 14 17 22 25 29 31 30 30 27 26 24 22 20 19 17 18 16 15 15 14 13 12 12 10 10 7 8 7 9 8 7 8 9 10 11 10 8 8 7
6 7 7 8 13 16 20 22 24 23 21 22 22 19 19 19 16 15 14 13 13 13 12 11 10 10 7 5 5 4 5 5 5 5 4 5 6 6 8 10 9 9 9
5 6 16 19 20 23 23 23 21 20 19 18 18 17 16 17 16 15 14 12 11 9 9 8 8 8 8 6 5 6 6 7 5 3 2 2 2 4 7 8 9 11 11
3 5 15 18 19 21 24 22 20 21 20 20 18 16 15 15 14 14 14 13 11 10 10 10 10 10 8 5 4 4 5 5 4 3 1 1 3 7 8 9 10 11 14
3 7 12 14 17 21 22 19 18 16 17 17 16 15 13 13 13 13 12 13 14 14 14 14 12 10 8 7 6 5 4 3 3 2 3 5 7 7 8 7 9 10 10
5 7 13 15 17 17 18 18 16 15 16 17 17 15 14 13 13 13 12 12 14 15 15 13 11 9 9 7 7 7 6 3 4 4 5 6 6 7 7 8 9 8 10
5 8 15 16 14 13 15 19 16 17 18 17 16 15 14 13 13 13 14 14 15 16 15 13 11 10 8 7 6 6 5 5 4 3 4 4 5 6 6 8 8 10 13
5 9 15 13 12 11 12 16 19 18 18 18 17 15 15 14 12 12 12 13 14 14 14 12 12 10 9 6 5 4 3 3 3 3 3 5 6 6 7 9 12 13 14
7 12 13 14 13 13 13 17 18 18 18 17 16 15 14 14 14 12 11 12 10 10 13 12 12 12 9 6 5 4 3 3 4 2 3 6 9 11 13 14 14 15 15
10 10 10 14 14 15 16 16 16 16 18 18 16 16 16 15 14 15 14 9 9 8 8 9 11 9 8 6 4 4 4 5 4 4 6 8 10 12 14 16 17 18 18
Wind_Direction
151 160 162 167 171 179 182 188 189 191 189 184 184 188 190 192 196 193 192 190 191 194 196 203 201 200 196 199 194 192 198 198 202 218 252 258 258 257 257 254 254 257 263
148 155 163 170 176 177 183 188 193 192 190 189 189 190 192 195 195 196 199 203 204 207 203 206 206 206 204 204 201 203 201 209 207 201 234 329 298 264 255 254 258 264 268
165 167 169 178 179 181 185 186 190 194 195 195 194 195 190 194 199 203 202 205 206 206 207 206 206 208 210 210 210 213 218 209 205 206 202 74 259 322 316 305 269 267 267
176 173 173 179 187 188 187 190 192 196 198 200 198 194 187 187 201 204 206 207 209 212 214 216 216 218 219 221 223 225 225 223 217 219 232 241 252 168 329 334 330 309 297
179 179 181 186 191 188 190 192 193 195 196 202 202 197 196 203 205 209 213 211 212 214 216 217 219 221 225 228 227 224 224 227 230 226 228 239 246 249 224 280 297 298 294
189 178 178 172 184 193 192 189 191 188 196 200 203 205 208 206 204 209 210 212 215 218 219 222 225 228 230 230 229 230 231 233 236 240 242 244 226 229 224 235 272 280 301
191 195 175 182 188 196 195 189 190 190 194 200 204 207 212 217 212 215 214 213 214 217 219 221 225 225 231 234 234 233 235 237 239 241 245 250 250 252 258 244 262 251 281
187 199 201 193 197 201 198 189 188 190 194 200 205 208 211 212 220 223 222 219 220 224 226 225 227 229 232 235 236 238 240 243 245 247 247 250 253 251 252 249 243 280 261
192 188 187 196 202 210 207 197 191 193 197 202 204 204 205 214 218 219 224 226 227 230 232 233 234 234 236 237 238 240 243 244 247 250 251 252 255 256 257 258 258 240 278
195 190 185 192 198 208 206 200 197 197 205 205 207 202 210 219 225 226 227 227 233 236 236 235 238 240 241 242 243 244 248 248 250 253 256 258 262 264 267 268 267 260 239
200 194 193 197 200 201 198 201 198 198 199 201 205 207 215 220 227 229 230 233 235 237 240 241 242 242 244 245 246 247 249 251 254 257 260 266 269 269 271 270 269 265 253
193 193 194 190 192 194 196 197 195 195 195 196 201 207 216 220 224 229 231 236 238 239 242 244 245 246 248 248 246 248 251 252 256 262 261 265 269 269 272 271 272 271 272
193 189 182 192 196 197 192 190 194 198 204 200 204 210 216 219 222 227 233 234 237 238 239 244 248 250 253 255 256 257 258 259 261 264 265 271 272 274 277 278 273 271 271
179 177 181 194 199 199 196 192 194 203 209 205 206 211 215 220 225 229 231 236 238 240 238 242 245 250 257 256 252 252 256 257 261 263 267 267 269 264 263 266 270 268 264
214 191 191 180 169 177 191 194 199 202 205 202 206 210 215 218 219 222 226 230 233 239 243 242 240 239 240 244 244 246 241 242 243 247 246 248 241 255 255 263 267 284 297
211 212 211 185 181 179 179 186 195 201 197 199 201 205 205 206 208 212 213 217 219 221 223 223 224 222 226 226 230 232 238 243 243 249 263 268 282 282 294 288 295 299 304
213 201 201 201 198 192 182 182 186 190 190 192 191 191 193 194 196 201 203 210 210 215 218 214 212 211 219 219 229 236 239 245 249 251 263 268 283 291 296 306 314 314 315
235 212 182 164 164 165 166 169 173 175 178 182 182 185 187 186 187 189 192 196 199 202 205 204 202 197 199 173 190 211 221 219 234 248 250 273 275 307 321 322 328 321 333
249 204 183 163 161 167 171 168 166 169 172 176 177 179 186 181 181 183 186 190 190 191 190 186 185 183 171 152 160 158 172 155 159 160 174 214 283 344 360 334 336 334 337
334 173 168 163 157 161 172 163 159 167 169 177 177 179 183 186 186 186 183 181 181 178 172 163 168 167 159 149 144 138 154 144 150 157 147 51 10 6 4 350 345 347 346
8 142 152 148 159 165 168 151 161 163 175 171 169 169 172 177 179 177 178 174 171 169 165 159 156 153 144 125 104 107 111 122 125 83 44 34 18 12 12 11 14 354 334
52 118 122 131 148 157 163 152 153 158 164 164 162 161 164 168 171 172 168 170 171 165 158 152 143 141 141 132 97 80 82 68 69 48 37 17 14 16 20 15 14 359 349
92 118 119 122 132 145 160 148 149 152 151 151 149 150 154 157 162 165 161 159 165 163 156 154 146 138 140 129 110 89 78 61 48 37 25 15 9 10 9 11 357 359 6
125 138 134 126 131 145 155 159 155 158 155 150 150 152 152 149 153 155 159 161 161 159 159 155 148 143 136 123 111 92 76 60 41 20 32 26 16 25 28 21 16 13 11
158 165 152 147 149 152 154 159 160 162 157 155 155 153 151 154 148 149 154 155 152 163 159 159 156 147 135 113 103 75 49 20 29 25 34 28 26 21 13 7 2 1 5
174 172 171 159 160 161 159 163 167 169 164 159 161 160 157 152 147 140 125 121 123 128 135 141 144 128 126 123 102 69 42 51 46 54 40 29 17 10 2 357 353 355 354